Location: Newark
(2.1500°N, 12.1333°E)
Time: 20:52:21
(UTC+00:00)

Envisat - Visible Passes

Search period start: 21 November 2019 00:00
Search period end: 01 December 2019 00:00
Orbit: 764 x 766 km, 98.1° (Epoch: 21 November)

Date Brightness Start Highest point End Pass type
(mag) Time Alt. Az. Time Alt. Az. Time Alt. Az.
21 Nov 2.9 17:31:13 10° SSE 17:36:17 74° ENE 17:41:20 10° N visible
22 Nov 5.7 18:34:55 10° SW 18:38:22 19° WSW 18:41:49 10° WNW visible
23 Nov 3.9 17:56:47 10° S 18:01:43 52° WSW 18:06:38 10° NNW visible
24 Nov 3.1 17:20:05 10° SSE 17:25:03 53° ENE 17:29:58 10° N visible
25 Nov 5.3 18:23:01 10° SSW 18:27:08 25° WSW 18:31:14 10° NW visible
26 Nov 3.3 17:45:24 10° S 17:50:28 72° WSW 17:55:31 10° NNW visible
27 Nov 6.2 18:50:47 10° WSW 18:52:33 12° WSW 18:54:18 10° W visible
28 Nov 4.7 18:11:20 10° SSW 18:15:53 34° WSW 18:20:26 10° NW visible
29 Nov 3.0 17:34:08 10° SSE 17:39:13 83° ENE 17:44:17 10° N visible
30 Nov 6.7 04:29:51 10° E 04:30:18 10° ESE 04:30:45 10° ESE visible
30 Nov 5.9 18:38:12 10° SW 18:41:18 16° WSW 18:44:25 10° WNW visible
